Showing default

LEMU-NGE, 60532

Orbit data source: Space-Track

LEMU-NGE, 60532 is a Chilean payload satellite in SSO that was launched on Fri, 16 Aug 2024 UTC via an FALCON 9 launch vehicle from the Air Force Western Test Range (AFWTR). Payload-class satellites include a variety of spacecraft equipped with specific instruments for various scientific and technological missions. These include communications satellites like Starlink; space stations such as the ISS; scientific satellites like the Hubble; Earth observation satellites from companies like Planet Labs, Umbra, and HawkEye 360; GPS; miniature CubeSats for education and research; and military/defense satellites.

Loading next visibility...
Identifier
60532, 2024-149BS
Orbit
SSO
Country
Flag of CLCL / CHLE
Related business
Manufacturer
NanoAvionics
Mission
Operational Commercial Imaging
Bus & Motor
CUBESAT 6U, Unknown motor
Mass
~10 kg wet, ~10 kg dry
Launch date (UTC)
2024-08-16 (2 years ago)
Launch vehicle
FALCON 9
Launch site
Air Force Western Test Range (AFWTR)
Object type
Payload
Rocket body
Debris
Shape & HBR
Box + 2 Pan, 0.1 m
Radar Cross Section
0.080 m², Medium (>0.1 m² and < 1m²)

Expand to show TLE details & history
Last TLE update: 13 hours ago

TLE from 13 hours ago
0 LEMU-NGE
1 60532U 24149BS  26196.16222053  .00001360  00000-0  12935-3 0  9994
2 60532  97.6837 270.5567 0000595  85.2508 274.8780 14.95060561104139
Epoch: 2026-07-15T03:53Z
TLE epoch observation values (Epoch: 2026-07-15T03:53:35.853Z)
Latitude
-0.00011°
Longitude
-80.86466°
Altitude
585.198 km
Speed
7.568 km/s
True Right ascension
18h 02m 13s
True Declination
0° 00' 00"
Sunlit
Object was in full shadow at epoch
Visualization orbit readout
Latitude
Unknown
Longitude
Unknown
Altitude
Unknown
Speed
Unknown
Apparent Right ascension
Unknown
Apparent Declination
Unknown
Sunlit
N/A
Visualization observer readout
Local Sidereal Time
05:42:41
Azimuth
Unknown
Elevation
Unknown
Doppler factor
Unknown
Orbital elements
Apogee altitude
579.61 km
Perigee altitude
578.782 km
Semi-major axis
6,957.333 km
Eccentricity
0.00006
Inclination
97.6837°
RAAN
270.5567°
Arg. of periapsis
85.2508°
True anomaly
274.87121°
Mean anomaly
274.878°
Eccentric anomaly
274.8746°
Mean motion
3.74006 °/min
Orbital period
96.26 mins
BSTAR
0.00012935
Loading maneuver chart data...
Computing Atmospheric mass density...
Loading historical data...
Loading historical data...
Loading historical data...
Loading historical data...
Loading historical data...
Loading historical data...
Loading historical data...

Documentation

Showing up to 5 results
|